�������l�o���
Date,Time,MP-1(��Sv/h),MP-2(��Sv/h),MP-3(��Sv/h),MP-4(��Sv/h),MP-5(��Sv/h),MP-6(��Sv/h),MP-7(��Sv/h),MP-8(��Sv/h),����,����(m/s),���J
2018/08/21,00:00,0.861,1.269,0.892,1.586,1.155,0.479,0.839,0.793,��쓌,2.0,��
2018/08/21,00:10,0.861,1.270,0.890,1.589,1.154,0.479,0.839,0.792,��쓌,2.5,��
2018/08/21,00:20,0.858,1.268,0.890,1.586,1.155,0.480,0.839,0.792,��,2.3,��
2018/08/21,00:30,0.860,1.269,0.889,1.585,1.154,0.480,0.837,0.793,��쐼,1.2,��
2018/08/21,00:40,0.859,1.267,0.890,1.589,1.154,0.481,0.839,0.791,��쓌,0.8,��
2018/08/21,00:50,0.861,1.269,0.891,1.586,1.156,0.477,0.838,0.792,��쓌,0.9,��
2018/08/21,01:00,0.861,1.269,0.893,1.589,1.156,0.478,0.839,0.793,��,0.9,��
2018/08/21,01:10,0.860,1.269,0.891,1.589,1.155,0.478,0.837,0.791,�k��,0.6,��
2018/08/21,01:20,0.861,1.271,0.892,1.588,1.154,0.478,0.838,0.792,-,CALM,��
2018/08/21,01:30,0.861,1.267,0.892,1.587,1.155,0.480,0.839,0.793,��쓌,1.1,��
2018/08/21,01:40,0.861,1.268,0.891,1.588,1.156,0.481,0.839,0.793,��쓌,1.2,��
2018/08/21,01:50,0.859,1.271,0.891,1.587,1.155,0.477,0.837,0.795,�쓌,1.7,��
2018/08/21,02:00,0.860,1.268,0.891,1.589,1.157,0.478,0.839,0.793,��쓌,0.8,��
2018/08/21,02:10,0.861,1.268,0.891,1.588,1.156,0.480,0.838,0.793,�쓌,1.2,��
2018/08/21,02:20,0.859,1.267,0.889,1.588,1.155,0.478,0.839,0.792,�쓌,1.4,��
2018/08/21,02:30,0.862,1.270,0.889,1.589,1.156,0.480,0.840,0.791,��,1.9,��
2018/08/21,02:40,0.861,1.269,0.892,1.589,1.155,0.480,0.838,0.792,��,1.5,��
2018/08/21,02:50,0.862,1.270,0.891,1.588,1.155,0.478,0.839,0.792,��쐼,1.1,��
2018/08/21,03:00,0.861,1.266,0.892,1.589,1.156,0.478,0.839,0.792,��,0.9,��
2018/08/21,03:10,0.861,1.270,0.890,1.592,1.157,0.481,0.837,0.794,��,1.2,��
2018/08/21,03:20,0.861,1.267,0.891,1.589,1.155,0.480,0.840,0.794,�쐼,1.4,��
2018/08/21,03:30,0.861,1.271,0.891,1.590,1.157,0.480,0.839,0.793,��쐼,1.9,��
2018/08/21,03:40,0.860,1.268,0.891,1.591,1.156,0.482,0.838,0.794,��쐼,2.0,��
2018/08/21,03:50,0.863,1.269,0.891,1.590,1.154,0.479,0.838,0.793,��쐼,1.5,��
2018/08/21,04:00,0.860,1.272,0.893,1.593,1.157,0.480,0.840,0.795,���쐼,0.8,��
2018/08/21,04:10,0.861,1.270,0.893,1.590,1.156,0.481,0.838,0.794,�쐼,0.9,��
2018/08/21,04:20,0.860,1.267,0.892,1.588,1.156,0.479,0.839,0.794,��,1.1,��
2018/08/21,04:30,0.859,1.270,0.891,1.590,1.159,0.480,0.839,0.793,�k��,0.6,��
2018/08/21,04:40,0.859,1.268,0.891,1.590,1.155,0.478,0.837,0.796,�k��,0.9,��
2018/08/21,04:50,0.860,1.267,0.892,1.586,1.155,0.479,0.837,0.792,�k�k��,2.0,��
2018/08/21,05:00,0.859,1.267,0.891,1.590,1.157,0.478,0.837,0.792,�k�k��,2.3,��
2018/08/21,05:10,0.860,1.269,0.892,1.589,1.154,0.479,0.838,0.793,�k�k��,3.3,��
2018/08/21,05:20,0.861,1.270,0.893,1.590,1.159,0.480,0.840,0.792,�k�k��,4.1,��
2018/08/21,05:30,0.862,1.268,0.893,1.590,1.156,0.478,0.838,0.792,�k�k��,3.8,��
2018/08/21,05:40,0.861,1.268,0.892,1.587,1.157,0.479,0.837,0.793,�k�k��,3.0,��
2018/08/21,05:50,0.862,1.266,0.894,1.588,1.155,0.477,0.838,0.793,�k,2.8,��
2018/08/21,06:00,0.861,1.267,0.893,1.588,1.155,0.478,0.838,0.792,�k�k��,3.4,��
2018/08/21,06:10,0.861,1.268,0.892,1.592,1.156,0.479,0.839,0.794,�k�k��,3.3,��
2018/08/21,06:20,0.858,1.271,0.892,1.591,1.158,0.479,0.838,0.794,�k�k��,2.8,��
2018/08/21,06:30,0.860,1.269,0.891,1.589,1.155,0.479,0.838,0.794,�k�k��,2.6,��
2018/08/21,06:40,0.859,1.267,0.892,1.590,1.156,0.479,0.837,0.793,�k,1.2,��
2018/08/21,06:50,0.860,1.268,0.889,1.590,1.155,0.478,0.840,0.793,�k��,0.9,��
2018/08/21,07:00,0.859,1.265,0.890,1.591,1.152,0.476,0.838,0.794,�k�k��,1.2,��
2018/08/21,07:10,0.859,1.268,0.889,1.588,1.153,0.477,0.840,0.793,�k�k��,1.4,��
2018/08/21,07:20,0.861,1.265,0.888,1.588,1.153,0.477,0.837,0.794,�k��,0.6,��
2018/08/21,07:30,0.858,1.263,0.889,1.589,1.156,0.476,0.838,0.792,�k��,0.9,��
2018/08/21,07:40,0.859,1.266,0.888,1.587,1.156,0.478,0.839,0.793,-,CALM,��
2018/08/21,07:50,0.860,1.267,0.890,1.588,1.155,0.479,0.838,0.792,-,CALM,��
2018/08/21,08:00,0.861,1.264,0.891,1.590,1.153,0.479,0.841,0.791,-,CALM,��
2018/08/21,08:10,0.860,1.264,0.889,1.585,1.154,0.478,0.838,0.792,��쓌,0.6,��
2018/08/21,08:20,0.857,1.265,0.891,1.589,1.154,0.479,0.839,0.788,��,1.5,��
2018/08/21,08:30,0.859,1.264,0.890,1.591,1.154,0.479,0.837,0.791,��쓌,2.8,��
2018/08/21,08:40,0.858,1.263,0.889,1.590,1.154,0.479,0.838,0.791,�쓌,2.9,��
2018/08/21,08:50,0.860,1.263,0.888,1.589,1.157,0.480,0.838,0.788,��쓌,2.9,��
2018/08/21,09:00,0.860,1.264,0.889,1.587,1.155,0.478,0.836,0.790,��쓌,2.9,��
2018/08/21,09:10,0.859,1.263,0.889,1.589,1.155,0.478,0.838,0.790,��쓌,3.0,��
2018/08/21,09:20,0.859,1.265,0.888,1.589,1.156,0.479,0.837,0.792,��쓌,4.3,��
2018/08/21,09:30,0.858,1.264,0.889,1.589,1.155,0.479,0.837,0.791,��쓌,4.4,��
2018/08/21,09:40,0.859,1.264,0.888,1.588,1.155,0.478,0.839,0.791,��쓌,5.8,��
2018/08/21,09:50,0.858,1.265,0.889,1.589,1.155,0.478,0.837,0.791,��쓌,5.7,��
2018/08/21,10:00,0.861,1.266,0.890,1.586,1.156,0.478,0.839,0.790,��,7.5,��
2018/08/21,10:10,0.860,1.265,0.888,1.588,1.155,0.479,0.839,0.790,��,8.5,��
2018/08/21,10:20,0.860,1.265,0.890,1.587,1.156,0.477,0.839,0.791,��,7.6,��
2018/08/21,10:30,0.862,1.263,0.891,1.590,1.154,0.478,0.840,0.791,��,7.2,��
2018/08/21,10:40,0.860,1.264,0.891,1.591,1.155,0.481,0.838,0.791,��쓌,6.9,��
2018/08/21,10:50,0.859,1.263,0.889,1.589,1.159,0.478,0.839,0.792,��,6.0,��
2018/08/21,11:00,0.860,1.265,0.890,1.591,1.157,0.479,0.840,0.790,��,7.0,��
2018/08/21,11:10,0.864,1.263,0.890,1.591,1.159,0.479,0.838,0.791,��,8.3,��
2018/08/21,11:20,0.860,1.265,0.891,1.592,1.160,0.479,0.840,0.791,��,6.9,��
2018/08/21,11:30,0.864,1.267,0.890,1.591,1.162,0.479,0.840,0.792,��,7.7,��
2018/08/21,11:40,0.861,1.269,0.892,1.592,1.158,0.480,0.841,0.791,��,9.1,��
2018/08/21,11:50,0.862,1.269,0.891,1.586,1.159,0.480,0.840,0.791,��,7.5,��
2018/08/21,12:00,0.862,1.265,0.892,1.587,1.160,0.479,0.841,0.792,��,7.9,��
2018/08/21,12:10,0.862,1.267,0.893,1.591,1.162,0.481,0.842,0.793,��,6.7,��
2018/08/21,12:20,0.861,1.268,0.892,1.589,1.160,0.480,0.841,0.793,��,8.2,��
2018/08/21,12:30,0.864,1.269,0.894,1.591,1.161,0.479,0.841,0.794,��쓌,7.5,��
2018/08/21,12:40,0.861,1.267,0.894,1.592,1.161,0.481,0.840,0.793,��,9.4,��
2018/08/21,12:50,0.861,1.269,0.891,1.590,1.163,0.480,0.840,0.792,��,9.6,��
2018/08/21,13:00,0.861,1.268,0.893,1.590,1.163,0.481,0.841,0.793,��,8.6,��
2018/08/21,13:10,0.863,1.268,0.893,1.590,1.163,0.480,0.841,0.792,��,7.0,��
2018/08/21,13:20,0.865,1.268,0.893,1.589,1.160,0.480,0.840,0.793,��쓌,7.2,��
2018/08/21,13:30,0.863,1.266,0.893,1.593,1.161,0.480,0.841,0.792,��,7.4,��
2018/08/21,13:40,0.862,1.265,0.893,1.593,1.164,0.481,0.842,0.792,��,9.1,��
2018/08/21,13:50,0.865,1.266,0.892,1.592,1.163,0.481,0.841,0.793,��,11.0,��
2018/08/21,14:00,0.862,1.268,0.895,1.591,1.164,0.480,0.844,0.792,��,11.7,��
2018/08/21,14:10,0.862,1.267,0.895,1.592,1.163,0.480,0.843,0.793,��,12.5,��
2018/08/21,14:20,0.864,1.268,0.895,1.596,1.165,0.481,0.843,0.793,��,11.1,��
2018/08/21,14:30,0.862,1.268,0.893,1.593,1.164,0.481,0.844,0.794,��,9.9,��
2018/08/21,14:40,0.865,1.268,0.893,1.594,1.165,0.480,0.843,0.795,��쓌,11.6,��
2018/08/21,14:50,0.865,1.268,0.893,1.590,1.164,0.479,0.843,0.795,��,12.7,��
2018/08/21,15:00,0.867,1.274,0.893,1.593,1.164,0.478,0.845,0.794,��,11.6,��
2018/08/21,15:10,0.863,1.270,0.894,1.592,1.162,0.479,0.844,0.793,��쓌,11.1,��
2018/08/21,15:20,0.863,1.266,0.894,1.592,1.163,0.478,0.844,0.792,��,12.8,��
2018/08/21,15:30,0.863,1.267,0.892,1.591,1.163,0.477,0.845,0.792,��,12.2,��
2018/08/21,15:40,0.863,1.270,0.894,1.592,1.164,0.477,0.843,0.792,��,11.8,��
2018/08/21,15:50,0.865,1.269,0.891,1.592,1.164,0.478,0.843,0.792,��,12.7,��
2018/08/21,16:00,0.863,1.272,0.895,1.593,1.163,0.478,0.844,0.793,��,12.7,��
2018/08/21,16:10,0.864,1.268,0.894,1.590,1.163,0.478,0.844,0.793,��,10.5,��
2018/08/21,16:20,0.861,1.269,0.893,1.591,1.166,0.478,0.842,0.792,��,10.3,��
2018/08/21,16:30,0.866,1.271,0.893,1.594,1.164,0.478,0.843,0.794,��,10.7,��
2018/08/21,16:40,0.862,1.269,0.900,1.595,1.165,0.477,0.842,0.791,��,10.5,��
2018/08/21,16:50,0.861,1.271,0.893,1.594,1.163,0.477,0.843,0.792,��,10.5,��
2018/08/21,17:00,0.861,1.271,0.894,1.596,1.164,0.478,0.841,0.791,��,11.7,��
2018/08/21,17:10,0.864,1.272,0.893,1.594,1.164,0.478,0.841,0.792,��,9.9,��
2018/08/21,17:20,0.863,1.270,0.892,1.594,1.164,0.475,0.842,0.793,��,9.7,��
2018/08/21,17:30,0.862,1.270,0.895,1.596,1.164,0.477,0.840,0.791,��,7.0,��
2018/08/21,17:40,0.861,1.272,0.892,1.593,1.162,0.477,0.842,0.793,��,7.9,��
2018/08/21,17:50,0.862,1.272,0.893,1.594,1.165,0.479,0.840,0.793,��,9.4,��
2018/08/21,18:00,0.864,1.270,0.891,1.592,1.164,0.476,0.842,0.792,��,9.5,��
2018/08/21,18:10,0.862,1.273,0.892,1.591,1.162,0.478,0.841,0.793,��,9.4,��
2018/08/21,18:20,0.862,1.271,0.893,1.595,1.163,0.479,0.842,0.794,��,9.4,��
2018/08/21,18:30,0.861,1.270,0.892,1.591,1.164,0.477,0.840,0.794,��,9.2,��
2018/08/21,18:40,0.860,1.269,0.893,1.594,1.164,0.476,0.841,0.792,��,8.0,��
2018/08/21,18:50,0.861,1.269,0.893,1.593,1.163,0.475,0.841,0.792,��,8.8,��
2018/08/21,19:00,0.862,1.271,0.892,1.593,1.164,0.479,0.840,0.793,��,9.4,��
2018/08/21,19:10,0.863,1.273,0.893,1.594,1.164,0.478,0.841,0.793,��,8.6,��
2018/08/21,19:20,0.862,1.273,0.895,1.593,1.165,0.478,0.841,0.793,��,8.5,��
2018/08/21,19:30,0.863,1.273,0.892,1.595,1.163,0.479,0.843,0.791,��,8.3,��
2018/08/21,19:40,0.863,1.270,0.895,1.591,1.164,0.479,0.841,0.793,��,7.3,��
2018/08/21,19:50,0.863,1.273,0.892,1.592,1.165,0.477,0.841,0.793,��,6.4,��
2018/08/21,20:00,0.864,1.273,0.894,1.593,1.165,0.477,0.843,0.791,��,7.9,��
2018/08/21,20:10,0.860,1.272,0.892,1.594,1.165,0.478,0.841,0.793,��,7.2,��
2018/08/21,20:20,0.864,1.269,0.893,1.593,1.164,0.478,0.841,0.794,��,6.6,��
2018/08/21,20:30,0.865,1.272,0.894,1.593,1.164,0.479,0.841,0.793,��,7.0,��
2018/08/21,20:40,0.864,1.273,0.892,1.595,1.164,0.477,0.840,0.794,��,7.3,��
2018/08/21,20:50,0.864,1.274,0.894,1.593,1.165,0.479,0.839,0.795,��,6.9,��
2018/08/21,21:00,0.862,1.271,0.894,1.593,1.165,0.479,0.840,0.793,��,7.1,��
2018/08/21,21:10,0.862,1.273,0.895,1.594,1.164,0.478,0.841,0.793,��,7.7,��
2018/08/21,21:20,0.863,1.271,0.894,1.594,1.166,0.479,0.840,0.793,��,6.9,��
2018/08/21,21:30,0.863,1.271,0.894,1.594,1.162,0.480,0.840,0.794,��,6.1,��
2018/08/21,21:40,0.862,1.270,0.893,1.596,1.163,0.478,0.840,0.793,��,6.5,��
2018/08/21,21:50,0.862,1.270,0.895,1.594,1.166,0.477,0.841,0.792,��,6.2,��
2018/08/21,22:00,0.860,1.270,0.893,1.597,1.164,0.481,0.843,0.793,��,7.1,��
2018/08/21,22:10,0.862,1.270,0.893,1.592,1.163,0.480,0.841,0.793,��,6.9,��
2018/08/21,22:20,0.863,1.270,0.894,1.594,1.164,0.479,0.842,0.793,��,8.1,��
2018/08/21,22:30,0.864,1.273,0.895,1.595,1.166,0.480,0.841,0.795,��,5.1,��
2018/08/21,22:40,0.862,1.270,0.895,1.594,1.163,0.480,0.842,0.795,��,4.1,��
2018/08/21,22:50,0.862,1.272,0.895,1.594,1.161,0.480,0.841,0.794,��,4.4,��
2018/08/21,23:00,0.862,1.270,0.895,1.594,1.161,0.479,0.841,0.794,��,4.6,��
2018/08/21,23:10,0.862,1.268,0.894,1.594,1.162,0.478,0.841,0.793,��,5.1,��
2018/08/21,23:20,0.862,1.270,0.894,1.595,1.161,0.477,0.841,0.794,��,6.4,��
2018/08/21,23:30,0.861,1.267,0.894,1.594,1.161,0.481,0.841,0.794,��,6.8,��
2018/08/21,23:40,0.862,1.268,0.893,1.593,1.161,0.478,0.843,0.793,��,7.2,��
2018/08/21,23:50,0.863,1.272,0.894,1.593,1.163,0.479,0.840,0.795,��,8.1,��
